This is the latest recevied weather packets stored in our database for station/object IONIA-WX. If no packets are shown the sender has not sent any weather packets the latest 10 day(s).
| Time | Temp. | Humidity | Pressure | Rain* | Wind** | Luminosity | Snow |
|---|---|---|---|---|---|---|---|
| 1788156019 | 69° F | 83% | 739.3 mmHg | 0 in | - | - | - |
| 1788155118 | 69° F | 83% | 739.7 mmHg | 0 in | - | - | - |
| 1788154221 | 69° F | 84% | 739.3 mmHg | 0 in | - | - | - |
| 1788153323 | 69° F | 84% | 739.3 mmHg | 0 in | - | - | - |
| 1788152422 | 69° F | 84% | 739.3 mmHg | 0 in | - | - | - |
| 1788151523 | 70° F | 80% | 739.9 mmHg | 0 in | - | - | - |
| 1788150622 | 70° F | 82% | 739.6 mmHg | 0 in | - | - | - |
| 1788149716 | 70° F | 82% | 739.6 mmHg | 0 in | - | - | - |
| 1788148822 | 70° F | 82% | 739.6 mmHg | 0 in | - | - | - |
| 1788147917 | 70° F | 80% | 738.8 mmHg | 0 in | - | - | - |
| 1788147022 | 71° F | 80% | 739.1 mmHg | 0 in | - | - | - |
| 1788146122 | 71° F | 80% | 739.1 mmHg | 0 in | - | - | - |
| 1788145222 | 71° F | 80% | 739.1 mmHg | 0 in | - | - | - |
| 1788144321 | 71° F | 78% | 739.3 mmHg | 0 in | - | - | - |
| 1788143422 | 72° F | 81% | 739.3 mmHg | 0 in | - | - | - |
| 1788142521 | 72° F | 81% | 739.3 mmHg | 0 in | - | - | - |
| 1788141622 | 72° F | 81% | 739.3 mmHg | 0 in | - | - | - |
| 1788140722 | 73° F | 77% | 738.8 mmHg | 0 in | - | - | - |
| 1788139821 | 73° F | 77% | 738.8 mmHg | 0 in | - | - | - |
| 1788138017 | 73° F | 77% | 738.8 mmHg | 0 in | - | - | - |
| 1788137121 | 74° F | 72% | 738.7 mmHg | 0 in | - | - | - |
| 1788136221 | 75° F | 72% | 739 mmHg | 0 in | - | - | - |
| 1788135320 | 76° F | 72% | 739 mmHg | 0 in | - | - | - |
| 1788134423 | 76° F | 72% | 739 mmHg | 0 in | - | - | - |
| 1788133521 | 77° F | 63% | 739.1 mmHg | 0 in | - | - | - |
* Rain latest hour (hover to see other rain measurements)
** Current wind speed in m/s (hover to see current wind gust speed)